When you browse on this site, cookies collect data to enhance your experience and personalize the content and advertising you see.
Visit our Privacy Policy to learn more. By continuing to use the site, you agree to this use of cookies and data.
  • In Portugal
  • List of Countries
  • For 7 days
  • Water Temperature
  • Weather Map
  • Weather Widgets
  • user-avatar
    Login

    Hourly Weather Molina de Segura

    Today, 22 August, Thursday

    Time Temperature Precipitation Wind Pressure Humidity
    00:00 +25°C° 0 mm 1 mps 754 mmHg 73%
    01:00 +23°C° 0 mm 0 mps 754 mmHg 75%
    02:00 +22°C° 0 mm 0 mps 754 mmHg 76%
    03:00 +22°C° 0 mm 0 mps 753 mmHg 78%
    04:00 +22°C° 0 mm 0 mps 753 mmHg 78%
    05:00 +22°C° 0 mm 0 mps 753 mmHg 78%
    06:00 +24°C° 0 mm 1 mps 754 mmHg 78%
    07:00 +25°C° 0 mm 1 mps 754 mmHg 71%
    08:00 +27°C° 0 mm 1 mps 754 mmHg 64%
    09:00 +28°C° 0 mm 1 mps 755 mmHg 57%
    10:00 +29°C° 0 mm 2 mps 754 mmHg 52%
    11:00 +31°C° 0 mm 3 mps 754 mmHg 46%
    12:00 +33°C° 0 mm 4 mps 754 mmHg 41%
    13:00 +33°C° 0 mm 5 mps 754 mmHg 41%
    14:00 +33°C° 0 mm 5 mps 754 mmHg 42%
    15:00 +33°C° 0 mm 6 mps 753 mmHg 42%
    16:00 +32°C° 0 mm 5 mps 753 mmHg 44%
    17:00 +30°C° 0 mm 5 mps 753 mmHg 46%
    18:00 +29°C° 0 mm 5 mps 753 mmHg 48%
    19:00 +28°C° 0 mm 4 mps 753 mmHg 53%
    20:00 +27°C° 0 mm 3 mps 754 mmHg 57%
    21:00 +26°C° 0 mm 2 mps 754 mmHg 62%
    22:00 +26°C° 0 mm 1 mps 754 mmHg 65%
    23:00 +25°C° 0 mm 1 mps 754 mmHg 68%

    Tomorrow, 23 August, Friday

    Time Temperature Precipitation Wind Pressure Humidity
    00:00 +25°C° 0 mm 1 mps 754 mmHg 70%
    01:00 +24°C° 0 mm 1 mps 754 mmHg 71%
    02:00 +24°C° 0 mm 1 mps 754 mmHg 72%
    03:00 +23°C° 0 mm 1 mps 753 mmHg 73%
    04:00 +23°C° 0 mm 1 mps 753 mmHg 71%
    05:00 +23°C° 0 mm 1 mps 753 mmHg 70%
    06:00 +23°C° 0 mm 1 mps 753 mmHg 68%
    07:00 +25°C° 0 mm 1 mps 754 mmHg 58%
    08:00 +27°C° 0 mm 1 mps 754 mmHg 48%
    09:00 +29°C° 0 mm 2 mps 755 mmHg 38%
    10:00 +30°C° 0 mm 3 mps 754 mmHg 34%
    11:00 +31°C° 0 mm 3 mps 754 mmHg 31%
    12:00 +34°C° 0 mm 4 mps 754 mmHg 27%
    13:00 +34°C° 0 mm 5 mps 753 mmHg 28%
    14:00 +34°C° 0 mm 5 mps 753 mmHg 28%
    15:00 +34°C° 0 mm 5 mps 753 mmHg 29%
    16:00 +33°C° 0 mm 5 mps 753 mmHg 32%
    17:00 +32°C° 0 mm 4 mps 752 mmHg 36%
    18:00 +30°C° 0 mm 4 mps 752 mmHg 39%
    19:00 +29°C° 0 mm 3 mps 753 mmHg 45%
    20:00 +27°C° 0 mm 2 mps 753 mmHg 50%
    21:00 +26°C° 0 mm 1 mps 753 mmHg 56%
    22:00 +24°C° 0 mm 0 mps 753 mmHg 57%
    23:00 +23°C° 0 mm 0 mps 753 mmHg 58%

    Day after tomorrow, 24 August, Saturday

    Time Temperature Precipitation Wind Pressure Humidity
    00:00 +23°C° 0 mm 0 mps 753 mmHg 59%
    01:00 +22°C° 0 mm 0 mps 753 mmHg 59%
    02:00 +22°C° 0 mm 0 mps 753 mmHg 60%
    03:00 +22°C° 0 mm 0 mps 752 mmHg 60%
    04:00 +22°C° 0 mm 0 mps 752 mmHg 60%
    05:00 +21°C° 0 mm 0 mps 752 mmHg 60%
    06:00 +21°C° 0 mm 0 mps 752 mmHg 60%
    07:00 +23°C° 0 mm 0 mps 753 mmHg 53%
    08:00 +27°C° 0 mm 1 mps 753 mmHg 45%
    09:00 +30°C° 0 mm 1 mps 753 mmHg 37%
    10:00 +31°C° 0 mm 1 mps 753 mmHg 34%
    11:00 +32°C° 0 mm 2 mps 753 mmHg 31%
    12:00 +35°C° 0 mm 3 mps 753 mmHg 28%
    13:00 +35°C° 0 mm 3 mps 752 mmHg 29%
    14:00 +35°C° 0 mm 4 mps 752 mmHg 30%
    15:00 +35°C° 0 mm 5 mps 752 mmHg 32%
    16:00 +34°C° 0 mm 5 mps 752 mmHg 37%
    17:00 +33°C° 0 mm 4 mps 751 mmHg 41%
    18:00 +30°C° 0 mm 4 mps 751 mmHg 46%
    19:00 +29°C° 0 mm 3 mps 752 mmHg 51%
    20:00 +28°C° 0 mm 2 mps 752 mmHg 57%
    21:00 +27°C° 0 mm 1 mps 753 mmHg 62%
    22:00 +26°C° 0 mm 1 mps 752 mmHg 64%
    23:00 +26°C° 0 mm 1 mps 752 mmHg 67%

    25 August, Sunday

    Time Temperature Precipitation Wind Pressure Humidity
    00:00 +23°C° 0 mm 0 mps 752 mmHg 70%
    01:00 +23°C° 0 mm 0 mps 752 mmHg 71%
    02:00 +22°C° 0 mm 0 mps 751 mmHg 73%
    03:00 +22°C° 0 mm 0 mps 751 mmHg 74%
    04:00 +22°C° 0 mm 0 mps 751 mmHg 75%
    05:00 +22°C° 0 mm 0 mps 751 mmHg 76%
    06:00 +22°C° 0 mm 0 mps 751 mmHg 77%
    07:00 +25°C° 0 mm 1 mps 752 mmHg 69%
    08:00 +27°C° 0 mm 1 mps 752 mmHg 61%
    09:00 +28°C° 0 mm 2 mps 752 mmHg 53%
    10:00 +30°C° 0 mm 3 mps 752 mmHg 48%
    11:00 +31°C° 0 mm 3 mps 752 mmHg 44%
    12:00 +34°C° 0 mm 4 mps 751 mmHg 39%
    13:00 +34°C° 0 mm 5 mps 751 mmHg 39%
    14:00 +34°C° 0 mm 5 mps 751 mmHg 40%
    15:00 +34°C° 0 mm 6 mps 750 mmHg 41%
    16:00 +33°C° 0 mm 5 mps 750 mmHg 46%
    17:00 +30°C° 0 mm 5 mps 750 mmHg 51%
    18:00 +29°C° 0 mm 4 mps 749 mmHg 55%
    19:00 +28°C° 0 mm 4 mps 750 mmHg 62%
    20:00 +27°C° 0 mm 3 mps 750 mmHg 68%
    21:00 +26°C° 0 mm 2 mps 750 mmHg 74%
    22:00 +26°C° 0 mm 2 mps 750 mmHg 77%
    23:00 +25°C° 0 mm 2 mps 750 mmHg 79%

    26 August, Monday

    Time Temperature Precipitation Wind Pressure Humidity
    00:00 +25°C° 0 mm 2 mps 750 mmHg 81%
    01:00 +25°C° 0 mm 2 mps 750 mmHg 81%
    02:00 +25°C° 0 mm 2 mps 750 mmHg 82%
    03:00 +25°C° 0 mm 2 mps 750 mmHg 82%
    04:00 +25°C° 0 mm 2 mps 750 mmHg 82%
    05:00 +25°C° 0 mm 2 mps 750 mmHg 82%
    06:00 +25°C° 0 mm 2 mps 750 mmHg 82%
    07:00 +25°C° 0.1 mm 3 mps 750 mmHg 76%
    08:00 +26°C° 0.1 mm 4 mps 751 mmHg 69%
    09:00 +27°C° 0.1 mm 5 mps 751 mmHg 63%
    10:00 +28°C° 0 mm 5 mps 751 mmHg 57%
    11:00 +29°C° 0 mm 5 mps 751 mmHg 52%
    12:00 +30°C° 0 mm 6 mps 750 mmHg 47%
    13:00 +30°C° 0 mm 6 mps 750 mmHg 50%
    14:00 +30°C° 0 mm 6 mps 750 mmHg 53%
    15:00 +30°C° 0 mm 7 mps 749 mmHg 56%
    16:00 +29°C° 0 mm 6 mps 749 mmHg 61%
    17:00 +28°C° 0 mm 6 mps 749 mmHg 65%
    18:00 +28°C° 0 mm 6 mps 748 mmHg 69%
    19:00 +27°C° 0.3 mm 5 mps 749 mmHg 72%
    20:00 +27°C° 0.3 mm 4 mps 750 mmHg 75%
    21:00 +27°C° 0.3 mm 3 mps 750 mmHg 79%
    22:00 +26°C° 1.6 mm 3 mps 750 mmHg 79%
    23:00 +26°C° 1.6 mm 3 mps 750 mmHg 80%

    27 August, Tuesday

    Time Temperature Precipitation Wind Pressure Humidity
    00:00 +25°C° 1.6 mm 2 mps 749 mmHg 81%
    01:00 +25°C° 0 mm 2 mps 749 mmHg 80%
    02:00 +25°C° 0 mm 1 mps 748 mmHg 79%
    03:00 +25°C° 0 mm 1 mps 748 mmHg 78%
    04:00 +25°C° 0.3 mm 2 mps 748 mmHg 78%
    05:00 +25°C° 0.3 mm 2 mps 748 mmHg 77%
    06:00 +24°C° 0.3 mm 3 mps 748 mmHg 77%
    07:00 +26°C° 0.1 mm 3 mps 748 mmHg 69%
    08:00 +27°C° 0.1 mm 2 mps 749 mmHg 62%
    09:00 +28°C° 0.1 mm 2 mps 749 mmHg 55%
    10:00 +29°C° 0 mm 2 mps 749 mmHg 51%
    11:00 +30°C° 0 mm 3 mps 749 mmHg 48%
    12:00 +31°C° 0 mm 3 mps 748 mmHg 45%
    13:00 +32°C° 0 mm 4 mps 748 mmHg 45%
    14:00 +32°C° 0 mm 5 mps 748 mmHg 46%
    15:00 +33°C° 0 mm 6 mps 747 mmHg 47%
    16:00 +30°C° 0 mm 5 mps 747 mmHg 54%
    17:00 +29°C° 0 mm 5 mps 747 mmHg 60%
    18:00 +28°C° 0 mm 4 mps 747 mmHg 67%
    19:00 +27°C° 0 mm 3 mps 748 mmHg 70%
    20:00 +27°C° 0 mm 2 mps 748 mmHg 72%
    21:00 +26°C° 0 mm 1 mps 748 mmHg 75%
    22:00 +26°C° 0 mm 1 mps 748 mmHg 76%
    23:00 +26°C° 0 mm 1 mps 749 mmHg 76%
    Show more